Weather in Puerto Barrios

Guatemala     15°43′19″N   88°35′27″W
temp.,
°C
wind,
m/s
gust,
m/s
humid.,
%
clouds,
%
prec.,
mm/h
press.,
hPa
HPBL,
m
17 may, mon
mon1700:00+23s119024 0.2 101369
03:00+23sw229087 0.2 101285
06:00+23ssw238759 0.4 1013111
09:00+28ssw1167100 0.0 1013575
12:00+31n32609 0.0 10121183
15:00+30nne446695 0.0 1010840
18:00+27ene368129 0.0 1010581
21:00+26e2682100 0.0 1012458
18 may, tue
tue1800:00+26ese1286100 0.1 1012137
03:00+25s129182 0.2 1011102
06:00+24s239351 1.9 1011106
09:00+30sw116711 0.0 1012621
12:00+32n43615 0.0 10101103
15:00+31ne44653 0.0 1008766
18:00+28ene488216 0.0 1009764
21:00+26ne3785100 0.6 1011306
19 may, wed
wed1900:00+25se119095 0.6 1011109
03:00+25s119277 1.4 100953
06:00+25ssw23917 11.3 1010116
09:00+28sw22765 3.1 1011463
12:00+32n32590 3.1 10091103
15:00+31nne33630 0.1 1007567
18:00+27ene37810 0.1 1007441
21:00+27ene278515 0.0 1009369
20 may, thu
thu2000:00+26ene2689100 0.4 1009364
03:00+25sse129599 0.6 1008109
06:00+25sw129318 1.7 1009118
09:00+30wsw22711 0.0 1010674
12:00+32nnw32613 0.0 10091163
15:00+32ne43614 0.0 1007883
18:00+28ene37800 0.1 1007605
21:00+26e2790100 1.8 1009232
21 may, fri
fri2100:00+26ene2695100 7.6 1010220
03:00+25nnw1393100 13.6 1008116
06:00+24nne1398100 29.6 1011184
09:00+25nnw2293100 6.9 1014470
12:00+25nne138671 7.8 1013477
15:00+28nne336913 0.0 1011857
18:00+26nne12835 0.0 101195
21:00+25ne018999 0.6 1013159